RYR215 LFMT-LIRP

Flight info

Callsign RYR215
Flight time 0h 55m
Altitude 32000
Route MARRI UY25 SALIN UY341 MTG UY373 ABILI DCT KONER
Aircraft B738/M-SDE2E3FGHIRWXY/LB1

Departure

Time 2026-04-28 14:00
Airport Montpellier-Méditerranée Airport (LFMT)

Arrival

Time 2026-04-28 14:55
Airport Pisa International Airport (LIRP)
Time Latitude Longitude Altitude Speed Heading
2026-04-28 13:26 43.58039 3.95810 14 ft 0 kts 214°
2026-04-28 13:51 43.58047 3.95817 14 ft 4 kts 217°
2026-04-28 13:51 43.58066 3.95841 14 ft 4 kts 238°
2026-04-28 13:51 43.58071 3.95870 14 ft 4 kts 298°
2026-04-28 13:51 43.58069 3.95877 14 ft 4 kts 307°
2026-04-28 13:55 43.58070 3.95874 14 ft 2 kts 307°
2026-04-28 13:55 43.58082 3.95852 16 ft 3 kts 307°
2026-04-28 13:55 43.58095 3.95828 14 ft 3 kts 307°
2026-04-28 13:55 43.58109 3.95803 15 ft 4 kts 307°
2026-04-28 13:56 43.58125 3.95774 16 ft 4 kts 308°
2026-04-28 13:56 43.58148 3.95757 14 ft 4 kts 349°
2026-04-28 13:56 43.58186 3.95773 16 ft 7 kts 33°
2026-04-28 13:56 43.58228 3.95820 15 ft 9 kts 26°
2026-04-28 13:57 43.58292 3.95799 11 ft 11 kts 315°
2026-04-28 13:57 43.58337 3.95711 12 ft 11 kts 305°
2026-04-28 13:57 43.58380 3.95626 12 ft 11 kts 304°
2026-04-28 13:57 43.58421 3.95543 14 ft 10 kts 306°
2026-04-28 13:58 43.58482 3.95496 12 ft 10 kts 352°
2026-04-28 13:58 43.58545 3.95525 13 ft 10 kts 37°
2026-04-28 13:58 43.58588 3.95581 13 ft 8 kts 66°
2026-04-28 13:58 43.58574 3.95649 10 ft 8 kts 124°
2026-04-28 13:59 43.58566 3.95663 10 ft 2 kts 124°
2026-04-28 13:59 43.58429 3.95934 10 ft 72 kts 125°
2026-04-28 13:59 43.58010 3.96766 14 ft 138 kts 124°
2026-04-28 13:59 43.57361 3.98022 265 ft 171 kts 125°
2026-04-28 14:00 43.56705 3.99348 1156 ft 165 kts 126°
2026-04-28 14:00 43.56062 4.00658 1993 ft 166 kts 126°
2026-04-28 14:00 43.55422 4.02007 2768 ft 171 kts 126°
2026-04-28 14:00 43.54758 4.03420 3468 ft 180 kts 123°
2026-04-28 14:01 43.54152 4.04972 4201 ft 188 kts 119°
2026-04-28 14:01 43.53535 4.06612 4887 ft 197 kts 120°
2026-04-28 14:01 43.52867 4.08345 5360 ft 213 kts 120°
2026-04-28 14:01 43.52153 4.10229 5722 ft 234 kts 119°
2026-04-28 14:02 43.51335 4.12363 5838 ft 269 kts 119°
2026-04-28 14:02 43.50431 4.14702 6537 ft 275 kts 119°
2026-04-28 14:02 43.49590 4.16899 7995 ft 249 kts 119°
2026-04-28 14:02 43.48826 4.18929 9253 ft 235 kts 118°
2026-04-28 14:03 43.48049 4.21000 9596 ft 258 kts 118°
2026-04-28 14:03 43.47155 4.23360 9506 ft 296 kts 118°
2026-04-28 14:03 43.46176 4.25927 10156 ft 301 kts 118°
2026-04-28 14:03 43.45248 4.28353 11729 ft 270 kts 119°
2026-04-28 14:04 43.44404 4.30531 13077 ft 251 kts 120°
2026-04-28 14:04 43.43545 4.32707 13403 ft 273 kts 121°
2026-04-28 14:04 43.42554 4.35170 13105 ft 316 kts 121°
2026-04-28 14:04 43.41438 4.37900 13483 ft 328 kts 121°
2026-04-28 14:05 43.40359 4.40526 14969 ft 298 kts 121°
2026-04-28 14:05 43.39391 4.42883 16468 ft 273 kts 122°
2026-04-28 14:05 43.38445 4.45177 16956 ft 285 kts 123°
2026-04-28 14:05 43.37387 4.47708 16557 ft 328 kts 123°
2026-04-28 14:06 43.36177 4.50550 16471 ft 355 kts 123°
2026-04-28 14:06 43.34955 4.53384 17621 ft 335 kts 123°
2026-04-28 14:06 43.33824 4.55977 19322 ft 300 kts 124°
2026-04-28 14:06 43.32898 4.58479 20311 ft 296 kts 107°
2026-04-28 14:07 43.32814 4.61367 20486 ft 317 kts 77°
2026-04-28 14:07 43.33526 4.64319 20671 ft 334 kts 69°
2026-04-28 14:07 43.34351 4.67388 20805 ft 351 kts 72°
2026-04-28 14:07 43.35030 4.70492 20935 ft 368 kts 76°
2026-04-28 14:08 43.35607 4.73997 21056 ft 384 kts 80°
2026-04-28 14:08 43.36062 4.77695 21180 ft 401 kts 83°
2026-04-28 14:08 43.36397 4.81107 21278 ft 414 kts 84°
2026-04-28 14:08 43.36629 4.83792 21358 ft 424 kts 84°
2026-04-28 14:09 43.37066 4.89255 21482 ft 443 kts 85°
2026-04-28 14:09 43.37398 4.93522 21595 ft 455 kts 85°
2026-04-28 14:09 43.37741 4.97875 21873 ft 461 kts 84°
2026-04-28 14:09 43.38091 5.02276 22295 ft 464 kts 84°
2026-04-28 14:10 43.38493 5.06665 22731 ft 466 kts 80°
2026-04-28 14:10 43.39293 5.10993 23138 ft 469 kts 71°
2026-04-28 14:10 43.40566 5.15144 23525 ft 472 kts 65°
2026-04-28 14:10 43.41961 5.19244 23879 ft 475 kts 64°
2026-04-28 14:11 43.43374 5.23372 24221 ft 478 kts 65°
2026-04-28 14:11 43.44777 5.27529 24580 ft 480 kts 65°
2026-04-28 14:11 43.46147 5.31665 24959 ft 482 kts 65°
2026-04-28 14:11 43.47526 5.35884 25311 ft 484 kts 65°
2026-04-28 14:12 43.48907 5.40124 25648 ft 486 kts 65°
2026-04-28 14:12 43.50291 5.44382 25976 ft 488 kts 66°
2026-04-28 14:12 43.51181 5.47290 26191 ft 490 kts 68°
2026-04-28 14:12 43.52798 5.53113 26611 ft 492 kts 69°
2026-04-28 14:13 43.54002 5.57536 26904 ft 494 kts 69°
2026-04-28 14:13 43.54832 5.60530 27077 ft 496 kts 69°
2026-04-28 14:13 43.56284 5.66524 27413 ft 499 kts 77°
2026-04-28 14:13 43.56727 5.69633 27617 ft 500 kts 82°
2026-04-28 14:14 43.56955 5.74406 28010 ft 497 kts 90°
2026-04-28 14:14 43.56938 5.79169 28478 ft 495 kts 91°
2026-04-28 14:14 43.56891 5.83895 28896 ft 493 kts 91°
2026-04-28 14:14 43.56841 5.88623 29250 ft 493 kts 91°
2026-04-28 14:15 43.56801 5.93353 29593 ft 493 kts 91°
2026-04-28 14:15 43.56772 5.98063 29965 ft 491 kts 91°
2026-04-28 14:15 43.56751 6.02773 30351 ft 490 kts 90°
2026-04-28 14:15 43.56735 6.07468 30685 ft 490 kts 90°
2026-04-28 14:16 43.56721 6.12165 30982 ft 490 kts 90°
2026-04-28 14:16 43.56706 6.16878 31277 ft 491 kts 90°
2026-04-28 14:16 43.56689 6.21579 31596 ft 490 kts 90°
2026-04-28 14:16 43.56670 6.26268 31922 ft 489 kts 91°
2026-04-28 14:17 43.56648 6.30977 32029 ft 493 kts 91°
2026-04-28 14:17 43.56624 6.35705 32026 ft 493 kts 91°
2026-04-28 14:17 43.56569 6.44944 32027 ft 489 kts 91°
2026-04-28 14:18 43.56507 6.54283 32025 ft 486 kts 91°
2026-04-28 14:18 43.56437 6.63532 32032 ft 484 kts 91°
2026-04-28 14:19 43.56364 6.72359 32045 ft 484 kts 91°
2026-04-28 14:19 43.56280 6.81654 32050 ft 486 kts 91°
2026-04-28 14:20 43.56188 6.90932 32048 ft 488 kts 91°
2026-04-28 14:20 43.56088 7.00313 32051 ft 490 kts 91°
2026-04-28 14:21 43.55980 7.09675 32049 ft 492 kts 91°
2026-04-28 14:21 43.55864 7.19117 32053 ft 493 kts 91°
2026-04-28 14:22 43.55740 7.28574 32043 ft 493 kts 91°
2026-04-28 14:22 43.55608 7.38036 32046 ft 493 kts 91°
2026-04-28 14:23 43.55467 7.47503 32045 ft 493 kts 91°
2026-04-28 14:23 43.55320 7.56958 32053 ft 493 kts 91°
2026-04-28 14:24 43.55165 7.66347 32057 ft 492 kts 91°
2026-04-28 14:24 43.55002 7.75797 32053 ft 492 kts 91°
2026-04-28 14:25 43.54831 7.85226 32058 ft 492 kts 92°
2026-04-28 14:25 43.54653 7.94675 32055 ft 492 kts 92°
2026-04-28 14:26 43.54467 8.04102 32063 ft 492 kts 92°
2026-04-28 14:26 43.54273 8.13541 32065 ft 492 kts 92°
2026-04-28 14:27 43.54071 8.22975 32065 ft 493 kts 92°
2026-04-28 14:27 43.53862 8.32416 32066 ft 493 kts 92°
2026-04-28 14:28 43.53644 8.41855 31929 ft 495 kts 92°
2026-04-28 14:28 43.53532 8.46590 31665 ft 493 kts 92°
2026-04-28 14:28 43.53419 8.51294 31414 ft 489 kts 92°
2026-04-28 14:29 43.53306 8.55912 31168 ft 487 kts 92°
2026-04-28 14:29 43.53190 8.60569 30872 ft 484 kts 92°
2026-04-28 14:29 43.53074 8.65176 30384 ft 479 kts 92°
2026-04-28 14:29 43.52956 8.69743 29886 ft 475 kts 92°
2026-04-28 14:30 43.52838 8.74279 29373 ft 470 kts 92°
2026-04-28 14:30 43.52719 8.78768 28854 ft 467 kts 92°
2026-04-28 14:30 43.52599 8.83221 28335 ft 463 kts 92°
2026-04-28 14:30 43.52479 8.87635 27819 ft 459 kts 92°
2026-04-28 14:31 43.52358 8.92018 27305 ft 456 kts 92°
2026-04-28 14:31 43.52236 8.96361 26794 ft 452 kts 92°
2026-04-28 14:31 43.52114 9.00677 26283 ft 449 kts 92°
2026-04-28 14:31 43.51991 9.04956 25770 ft 446 kts 92°
2026-04-28 14:32 43.51867 9.09209 25262 ft 442 kts 92°
2026-04-28 14:32 43.51743 9.13425 24759 ft 439 kts 92°
2026-04-28 14:32 43.51618 9.17611 24257 ft 435 kts 93°
2026-04-28 14:32 43.51492 9.21765 23760 ft 432 kts 93°
2026-04-28 14:33 43.51366 9.25894 23263 ft 429 kts 93°
2026-04-28 14:33 43.51241 9.29928 22774 ft 426 kts 93°
2026-04-28 14:33 43.51114 9.33990 22285 ft 423 kts 93°
2026-04-28 14:33 43.50986 9.38019 21791 ft 419 kts 93°
2026-04-28 14:34 43.50731 9.45986 20820 ft 413 kts 93°
2026-04-28 14:34 43.50651 9.49933 20327 ft 410 kts 86°
2026-04-28 14:34 43.51264 9.53747 19851 ft 407 kts 68°
2026-04-28 14:35 43.52654 9.57099 19387 ft 401 kts 52°
2026-04-28 14:35 43.54361 9.60123 18934 ft 398 kts 50°
2026-04-28 14:35 43.56094 9.63090 18472 ft 396 kts 50°
2026-04-28 14:35 43.57808 9.66040 17981 ft 393 kts 51°
2026-04-28 14:36 43.59498 9.68994 17517 ft 391 kts 51°
2026-04-28 14:36 43.61158 9.71934 17053 ft 388 kts 51°
2026-04-28 14:36 43.62805 9.74870 16591 ft 385 kts 51°
2026-04-28 14:36 43.64438 9.77789 16130 ft 382 kts 52°
2026-04-28 14:37 43.66042 9.80653 15960 ft 371 kts 52°
2026-04-28 14:37 43.67598 9.83433 15813 ft 360 kts 52°
2026-04-28 14:37 43.69111 9.86136 15634 ft 351 kts 52°
2026-04-28 14:37 43.70332 9.88990 15461 ft 342 kts 71°
2026-04-28 14:38 43.70695 9.92175 15326 ft 332 kts 94°
2026-04-28 14:38 43.70271 9.95272 14983 ft 327 kts 111°
2026-04-28 14:38 43.69202 9.98000 14666 ft 322 kts 127°
2026-04-28 14:38 43.67875 10.00474 14344 ft 319 kts 129°
2026-04-28 14:39 43.66550 10.02868 14022 ft 317 kts 129°
2026-04-28 14:39 43.65220 10.05269 13771 ft 312 kts 128°
2026-04-28 14:39 43.63922 10.07650 13509 ft 308 kts 128°
2026-04-28 14:39 43.62645 10.10009 13248 ft 305 kts 128°
2026-04-28 14:40 43.61383 10.12343 12997 ft 302 kts 128°
2026-04-28 14:40 43.60537 10.13909 12826 ft 299 kts 128°
2026-04-28 14:40 43.58900 10.16936 12490 ft 295 kts 128°
2026-04-28 14:40 43.57683 10.19186 12238 ft 291 kts 128°
2026-04-28 14:41 43.56475 10.21415 11974 ft 288 kts 128°
2026-04-28 14:41 43.55286 10.23608 11869 ft 280 kts 128°
2026-04-28 14:41 43.54138 10.25724 11726 ft 273 kts 128°
2026-04-28 14:41 43.53011 10.27798 11541 ft 267 kts 128°
2026-04-28 14:42 43.51912 10.29822 11414 ft 260 kts 128°
2026-04-28 14:42 43.50842 10.31788 11312 ft 252 kts 128°
2026-04-28 14:42 43.49960 10.33832 11177 ft 249 kts 107°
2026-04-28 14:42 43.49878 10.36207 10945 ft 253 kts 76°
2026-04-28 14:43 43.50697 10.38338 10701 ft 255 kts 47°
2026-04-28 14:43 43.52039 10.39937 10487 ft 256 kts 37°
2026-04-28 14:43 43.53463 10.41372 10179 ft 258 kts 36°
2026-04-28 14:43 43.54921 10.42826 9885 ft 259 kts 36°
2026-04-28 14:44 43.56381 10.44285 9621 ft 259 kts 37°
2026-04-28 14:44 43.57830 10.45759 9355 ft 259 kts 37°
2026-04-28 14:44 43.59275 10.47243 9066 ft 259 kts 37°
2026-04-28 14:44 43.60726 10.48738 8773 ft 260 kts 37°
2026-04-28 14:45 43.62177 10.50235 8496 ft 260 kts 37°
2026-04-28 14:45 43.63622 10.51729 8233 ft 259 kts 37°
2026-04-28 14:45 43.65066 10.53222 7946 ft 259 kts 37°
2026-04-28 14:45 43.66510 10.54717 7661 ft 260 kts 37°
2026-04-28 14:46 43.67958 10.56217 7384 ft 260 kts 37°
2026-04-28 14:46 43.69400 10.57711 7129 ft 259 kts 37°
2026-04-28 14:46 43.70842 10.59207 6854 ft 259 kts 37°
2026-04-28 14:46 43.72293 10.60711 6527 ft 262 kts 37°
2026-04-28 14:47 43.73749 10.62222 6261 ft 262 kts 37°
2026-04-28 14:47 43.75202 10.63732 6004 ft 262 kts 37°
2026-04-28 14:47 43.76663 10.65251 5713 ft 262 kts 37°
2026-04-28 14:47 43.78226 10.66519 5448 ft 262 kts 16°
2026-04-28 14:48 43.80013 10.66634 5231 ft 256 kts 345°
2026-04-28 14:48 43.81573 10.65606 5043 ft 245 kts 321°
2026-04-28 14:48 43.82784 10.64012 4821 ft 237 kts 312°
2026-04-28 14:48 43.83870 10.62374 4576 ft 231 kts 311°
2026-04-28 14:49 43.84930 10.60768 4418 ft 222 kts 311°
2026-04-28 14:49 43.85959 10.59226 4253 ft 214 kts 311°
2026-04-28 14:49 43.86749 10.57568 4079 ft 202 kts 283°
2026-04-28 14:49 43.86768 10.55716 3937 ft 188 kts 253°
2026-04-28 14:50 43.86198 10.54164 3763 ft 176 kts 230°
2026-04-28 14:50 43.85448 10.52885 3689 ft 168 kts 230°
2026-04-28 14:50 43.84701 10.51604 3741 ft 172 kts 230°
2026-04-28 14:50 43.83960 10.50311 3620 ft 170 kts 230°
2026-04-28 14:51 43.83193 10.49096 3297 ft 165 kts 219°
2026-04-28 14:51 43.82227 10.48299 2907 ft 161 kts 201°
2026-04-28 14:51 43.81184 10.47801 2629 ft 155 kts 199°
2026-04-28 14:51 43.80174 10.47337 2282 ft 152 kts 200°
2026-04-28 14:52 43.79186 10.46821 2005 ft 151 kts 204°
2026-04-28 14:52 43.78244 10.46256 1726 ft 146 kts 206°
2026-04-28 14:52 43.77313 10.45674 1428 ft 145 kts 208°
2026-04-28 14:52 43.76425 10.45081 1154 ft 141 kts 207°
2026-04-28 14:53 43.75521 10.44501 1110 ft 144 kts 207°
2026-04-28 14:53 43.74605 10.43928 1118 ft 143 kts 204°
2026-04-28 14:53 43.73641 10.43610 1064 ft 146 kts 190°
2026-04-28 14:53 43.72621 10.43459 1008 ft 145 kts 193°
2026-04-28 14:54 43.71715 10.42955 913 ft 142 kts 219°
2026-04-28 14:54 43.70950 10.42096 673 ft 143 kts 218°
2026-04-28 14:54 43.70146 10.41269 383 ft 144 kts 220°
2026-04-28 14:54 43.69348 10.40439 94 ft 142 kts 218°
2026-04-28 14:55 43.68599 10.39658 19 ft 116 kts 217°
2026-04-28 14:55 43.68153 10.39195 16 ft 30 kts 217°
2026-04-28 14:55 43.68129 10.39158 15 ft 3 kts 266°
2026-04-28 14:55 43.68137 10.39127 15 ft 4 kts 299°
2026-04-28 14:56 43.68149 10.39096 15 ft 4 kts 299°
2026-04-28 14:56 43.68167 10.39066 16 ft 4 kts 310°
2026-04-28 14:56 43.68186 10.39033 15 ft 5 kts 307°
2026-04-28 14:56 43.68206 10.38995 15 ft 5 kts 307°
2026-04-28 14:57 43.68234 10.38958 15 ft 6 kts 338°
2026-04-28 14:57 43.68259 10.38965 13 ft 6 kts 31°
2026-04-28 14:57 43.68305 10.39017 16 ft 7 kts 39°
2026-04-28 14:57 43.68342 10.39059 15 ft 7 kts 39°
2026-04-28 14:58 43.68384 10.39104 16 ft 9 kts 37°
2026-04-28 14:58 43.68457 10.39178 16 ft 16 kts 37°
2026-04-28 14:58 43.68546 10.39271 18 ft 16 kts 37°
2026-04-28 14:58 43.68631 10.39359 17 ft 15 kts 37°
2026-04-28 14:59 43.68714 10.39443 17 ft 14 kts 36°
2026-04-28 14:59 43.68792 10.39525 18 ft 14 kts 37°
2026-04-28 14:59 43.68867 10.39603 17 ft 13 kts 37°
2026-04-28 14:59 43.68939 10.39678 18 ft 13 kts 37°
2026-04-28 15:00 43.69010 10.39750 19 ft 12 kts 37°
2026-04-28 15:00 43.69079 10.39821 19 ft 12 kts 36°
2026-04-28 15:00 43.69146 10.39889 21 ft 12 kts 36°
2026-04-28 15:00 43.69211 10.39955 24 ft 12 kts 36°
2026-04-28 15:01 43.69254 10.39998 21 ft 11 kts 36°
2026-04-28 15:01 43.69316 10.40062 21 ft 11 kts 36°
2026-04-28 15:01 43.69408 10.40101 22 ft 11 kts 353°
2026-04-28 15:01 43.69497 10.40084 16 ft 15 kts 352°
2026-04-28 15:02 43.69592 10.40066 14 ft 13 kts 352°
2026-04-28 15:02 43.69643 10.40056 14 ft 5 kts 352°
2026-04-28 15:02 43.69657 10.40053 14 ft 0 kts 352°
2026-04-28 15:03 43.69665 10.40054 14 ft 3 kts
2026-04-28 15:04 43.69689 10.40069 14 ft 4 kts 25°
2026-04-28 15:04 43.69713 10.40082 14 ft 4 kts 15°
2026-04-28 15:04 43.69737 10.40088 14 ft 2 kts
2026-04-28 15:04 43.69751 10.40091 14 ft 1 kts
2026-04-28 15:05 43.69758 10.40092 14 ft 0 kts